Temp
12 12 11 12 12 12 10 12 12 16 14 15 16 15 15 14 14 13 13 14 14 13 12 10 9 8 7 7 6 6 6 6 7 7 6 6 5 5 5 6 6 6 6 6
10 12 11 11 11 12 12 12 13 13 14 16 17 16 15 14 13 13 14 14 13 12 11 10 9 9 8 7 6 5 6 6 6 6 6 6 6 5 5 5 5 5 5 5
12 11 12 12 14 13 12 13 13 12 15 17 16 16 15 15 14 14 14 14 13 13 12 10 10 9 8 7 6 5 6 6 5 5 6 6 5 5 5 5 5 5 4 4
12 12 12 14 13 12 13 13 13 13 14 15 15 15 14 14 14 14 14 13 12 12 11 10 9 8 7 6 6 5 6 6 5 5 5 5 5 5 5 5 5 5 5 4
11 11 13 14 12 12 11 15 15 14 14 15 15 13 14 15 14 14 13 12 12 11 11 11 9 8 7 7 6 6 6 6 6 5 5 5 5 5 5 4 4 4 4 4
10 10 12 15 12 11 12 16 15 14 15 15 12 14 18 14 13 14 13 12 11 11 9 9 9 8 7 7 7 7 7 6 6 5 5 5 5 4 4 3 3 3 3 3
10 11 12 14 12 12 15 17 13 12 13 13 13 16 16 13 13 12 11 11 10 9 9 10 9 7 7 7 7 7 6 7 6 5 4 4 4 4 4 3 3 4 3 3
9 10 10 12 10 13 15 13 13 13 13 12 13 13 13 13 12 12 12 11 10 9 9 9 7 6 7 7 7 6 7 6 6 6 5 5 4 4 3 3 4 4 4 4
12 13 14 11 14 14 11 12 13 13 13 13 12 12 13 13 13 12 11 11 10 9 9 9 8 6 7 8 7 6 6 5 6 5 5 4 4 4 4 4 4 5 4 4
10 15 13 13 13 13 12 12 13 12 11 11 11 12 12 12 12 11 10 10 9 9 9 9 9 7 7 7 7 6 6 6 6 5 5 5 3 3 4 4 5 4 4 4
11 12 13 13 13 14 13 12 11 11 10 11 11 11 11 11 10 10 10 9 8 8 8 8 8 8 7 7 6 5 5 5 5 5 5 5 5 5 5 5 4 5 5 4
13 16 15 15 12 11 11 11 12 12 11 11 10 10 11 10 10 9 8 8 7 6 6 6 6 6 6 6 5 5 5 5 6 5 5 4 4 4 5 6 5 5 4 3
13 14 13 11 11 11 11 11 11 10 10 10 10 9 9 9 9 8 7 6 6 6 5 5 5 5 5 5 4 4 5 5 6 5 5 5 5 4 4 5 4 4 4 4
11 10 10 13 12 11 10 9 9 8 8 8 8 8 7 8 7 6 6 6 5 4 4 4 4 5 4 4 4 4 3 4 4 5 5 5 4 4 4 4 5 5 4 3
10 10 10 10 9 9 8 7 7 7 8 8 8 7 8 7 6 6 6 5 4 3 4 4 4 5 5 5 4 3 3 4 3 3 3 3 3 2 3 3 3 3 3 2
8 8 7 7 7 7 6 6 6 6 7 6 6 6 6 6 5 5 4 4 3 5 4 4 3 4 4 4 4 4 3 3 3 2 2 2 2 2 2 2 2 2 2 2
6 7 6 5 6 5 5 5 5 5 5 5 5 5 4 4 4 4 4 4 3 3 4 3 4 4 4 3 3 2 2 2 2 1 2 1 1 1 1 1 1 1 1 1
5 5 4 4 4 4 4 4 4 4 4 4 3 4 3 3 4 5 4 4 3 3 4 5 5 4 4 3 3 2 2 1 1 1 0 0 0 -0 -0 -0 -0 -0 0 1
4 4 4 4 4 4 4 4 4 3 3 3 3 3 4 4 4 4 4 3 2 3 5 6 5 4 3 3 2 2 1 -0 -1 -1 -1 -1 -1 -1 -0 -1 -1 -0 -0 -0
5 4 4 4 4 4 4 5 4 4 4 3 3 3 4 4 4 3 3 2 4 5 6 6 5 4 4 3 2 1 -0 -1 -1 -1 -2 -2 -2 -2 -1 -1 -1 -1 -1 -0
5 5 5 5 5 5 5 5 4 5 5 4 3 3 4 4 4 4 2 3 8 8 7 7 6 5 4 3 2 1 -1 -1 -1 -1 -1 -1 -2 -2 -1 -1 -1 -1 -1 -1
3 3 4 4 4 4 5 4 4 4 4 5 4 4 3 3 4 4 5 4 8 8 7 6 5 5 4 2 1 0 -0 -1 -1 -1 -1 -1 -2 -2 -1 -1 -1 -1 -1 -1
2 3 4 4 4 4 3 3 4 4 4 4 5 5 4 4 5 4 5 8 8 7 6 5 5 4 4 2 1 -0 -1 -1 -1 -1 -1 -2 -2 -2 -1 -1 -1 -1 -1 -1
3 3 3 3 4 3 3 4 4 4 4 5 5 5 4 4 4 4 5 5 6 5 4 4 4 4 2 1 0 -0 -0 -1 -1 -1 -2 -2 -2 -1 -1 -1 -1 -1 -1 -1
2 2 2 2 2 3 4 4 3 3 3 3 4 5 5 5 3 4 4 4 4 4 3 4 3 2 1 0 -0 -0 -1 -1 -1 -2 -2 -2 -2 -2 -1 -1 -1 -1 -2 -2
2 2 3 3 3 3 3 3 3 3 3 3 3 3 3 4 3 3 2 3 3 3 3 3 2 1 -0 -1 -1 -1 -1 -2 -2 -2 -2 -2 -2 -2 -2 -2 -2 -2 -2 -2
2 2 2 2 2 2 2 2 2 2 2 2 2 2 2 3 3 3 3 2 2 2 1 1 -0 -1 -1 -1 -1 -2 -2 -2 -2 -2 -2 -2 -2 -2 -2 -2 -2 -3 -3 -3
Height
845 846 847 843 840 842 849 834 829 800 809 790 795 795 794 795 794 792 789 786 785 786 786 787 788 788 788 787 786 786 785 782 779 775 772 768 765 763 761 758 756 753 750 748
852 838 840 840 833 832 828 827 819 815 800 791 782 786 788 789 790 787 784 782 782 782 782 782 783 784 785 784 784 783 782 780 777 773 770 767 764 762 760 757 755 753 751 748
836 841 834 818 802 810 814 811 810 812 779 783 780 783 783 783 784 781 779 776 775 775 775 776 778 779 780 781 780 780 779 776 774 771 768 766 764 762 761 759 757 755 752 750
836 833 822 798 804 807 803 799 800 795 782 782 780 780 782 781 778 774 772 771 771 771 771 771 773 774 776 776 776 775 774 773 772 769 767 766 765 763 762 760 758 755 752 750
842 836 810 795 800 802 805 783 781 783 779 779 782 784 772 769 771 771 770 770 768 768 767 768 769 770 771 772 772 772 771 770 769 767 765 765 763 763 762 760 758 756 753 750
852 847 820 791 801 805 804 780 778 778 775 776 786 777 763 768 770 770 769 768 767 766 766 765 765 766 768 768 769 767 767 766 765 764 763 762 761 761 760 758 757 754 752 751
850 839 809 792 799 803 791 780 781 783 779 779 777 767 765 768 767 767 766 765 765 764 763 762 763 763 763 763 762 762 762 761 760 760 760 759 759 758 758 757 755 753 751 750
846 840 826 795 802 793 778 781 781 780 779 779 775 770 768 766 764 763 762 761 760 759 758 758 759 759 759 758 756 757 757 756 756 756 756 755 755 755 754 753 752 750 748 746
814 795 784 791 783 781 785 782 777 777 775 775 772 769 764 761 759 757 756 756 754 753 752 752 752 752 751 748 751 751 751 750 750 750 750 750 750 750 750 749 747 745 744 743
816 777 782 780 781 781 780 778 775 774 773 772 768 764 760 757 755 753 751 750 750 749 747 745 744 742 740 740 741 741 741 742 742 743 744 745 744 743 743 743 743 742 740 738
796 783 779 770 771 771 772 773 772 768 767 764 761 757 756 753 750 748 747 746 745 743 740 738 737 736 735 733 733 733 733 733 734 734 735 735 735 735 734 734 733 733 732 731
777 762 765 763 770 772 771 768 764 762 758 755 753 749 747 746 744 744 743 741 739 738 736 733 732 730 729 730 729 729 729 728 727 727 727 726 726 725 724 724 724 725 725 725
772 765 767 768 769 767 763 759 757 755 752 749 745 744 741 740 738 738 737 736 735 732 729 728 726 724 723 723 722 722 721 720 720 720 721 721 721 721 720 718 716 717 716 716
777 776 766 761 755 760 760 754 751 747 745 743 740 738 737 733 732 732 731 730 729 729 727 725 723 721 720 719 718 717 717 716 716 715 715 714 713 713 712 711 709 707 706 707
772 769 767 760 759 755 754 750 745 739 735 732 732 730 729 727 725 725 725 725 725 724 723 722 719 717 716 715 715 714 714 712 712 711 710 709 709 708 706 705 704 702 702 701
770 767 767 763 756 753 750 746 741 733 730 727 725 723 722 722 722 722 722 722 722 720 719 717 716 714 712 712 711 709 709 708 708 707 706 705 704 704 702 700 698 697 697 695
771 763 761 756 754 749 747 743 738 732 726 723 719 718 717 717 719 719 719 718 717 715 714 713 711 710 710 709 708 707 705 704 703 702 701 699 698 698 697 697 695 693 692 692
772 769 766 763 756 750 743 738 734 729 724 720 717 716 715 715 715 716 716 716 715 712 711 708 707 707 706 705 705 703 702 701 699 698 697 695 694 691 690 689 688 686 685 686
768 765 760 756 752 748 743 736 730 726 723 720 718 716 715 715 715 714 714 713 713 711 706 705 705 704 703 702 702 700 698 696 695 693 692 691 689 687 685 682 681 680 679 679
764 760 756 751 748 745 740 734 729 725 723 721 719 717 715 714 713 713 712 709 708 706 704 703 701 699 698 697 697 695 693 692 691 689 687 685 683 682 680 678 677 675 673 672
764 758 753 748 744 740 737 733 729 723 720 719 718 715 713 711 710 710 709 707 699 700 698 697 696 694 693 693 692 691 690 690 688 685 682 680 677 675 674 673 672 670 667 666
761 757 752 747 742 738 732 728 725 722 719 715 714 712 710 707 706 705 702 701 695 694 693 691 690 689 688 688 687 686 685 684 684 681 678 675 673 669 668 666 665 665 663 663
758 755 751 746 739 733 727 722 718 716 714 711 709 706 705 702 700 699 695 690 689 688 686 684 683 682 682 681 680 679 678 677 677 675 673 670 668 664 663 661 658 659 659 657
753 749 744 739 735 730 723 715 712 708 706 703 700 698 698 696 691 690 686 683 682 681 678 676 675 675 675 674 673 672 670 670 670 668 666 664 663 659 658 657 654 653 654 653
746 741 736 730 726 722 716 712 707 703 699 695 692 689 688 686 683 678 678 675 674 672 670 670 668 667 667 666 665 665 664 663 663 662 660 659 657 654 653 652 650 649 650 649
737 733 727 723 719 715 710 706 702 697 694 689 684 682 678 676 673 671 669 668 667 665 664 663 662 661 659 659 659 659 658 657 657 656 655 653 651 650 648 647 646 647 646 646
727 724 720 715 711 706 702 699 696 689 687 684 679 676 673 670 667 664 662 660 660 659 658 657 656 654 653 654 653 653 652 651 651 651 649 648 646 644 643 643 644 645 644 645
Wind_Speed
10 11 12 15 15 15 20 22 11 10 15 22 15 15 15 14 15 14 12 10 7 7 8 9 9 8 8 7 6 7 8 7 6 6 6 6 6 6 7 6 6 5 5 5
6 9 10 17 20 23 24 25 28 26 31 26 26 19 16 15 11 10 11 11 11 8 11 11 10 10 8 8 8 8 9 8 6 5 4 4 4 4 4 4 4 5 4 4
5 4 14 16 17 22 19 19 24 22 28 16 21 16 14 13 13 14 15 15 13 11 10 10 12 10 10 10 9 9 11 10 8 6 5 4 4 3 3 3 4 5 5 5
6 10 4 3 7 8 13 20 20 24 26 22 19 18 16 16 17 16 13 10 9 11 11 11 11 10 10 10 11 11 12 11 9 8 7 7 6 5 5 4 4 4 4 4
3 4 13 2 3 3 6 7 18 24 24 21 15 14 17 5 4 7 6 6 7 8 8 8 11 11 12 13 13 12 12 11 11 9 9 8 8 8 6 6 5 5 4 4
1 4 4 2 0 3 3 1 2 11 14 9 3 4 4 2 3 5 7 7 8 7 8 10 12 12 13 15 14 15 13 12 11 11 10 10 9 9 8 7 7 6 6 5
9 6 9 9 6 2 4 4 8 3 7 6 6 7 2 2 5 7 9 11 10 10 12 13 10 12 15 16 19 15 12 13 13 13 12 11 10 9 8 9 8 9 8 7
7 6 9 8 5 6 2 1 3 4 7 9 13 13 10 10 10 10 11 12 11 12 13 13 12 13 17 19 19 14 15 16 16 15 14 13 11 10 9 9 10 10 9 8
9 6 4 7 11 6 4 7 12 12 13 11 13 14 14 13 14 15 15 15 12 11 13 14 14 15 18 24 16 15 14 17 17 16 16 14 12 11 10 10 10 10 9 9
3 9 20 19 18 17 16 17 18 14 14 13 16 17 18 16 14 12 16 14 11 12 16 19 16 16 21 21 18 17 17 18 17 16 15 14 14 13 12 12 11 10 10 10
13 19 21 19 14 14 13 12 13 13 12 14 14 15 15 14 14 14 13 12 13 15 16 18 18 18 17 19 17 18 19 18 17 17 17 17 18 17 16 15 15 12 12 10
10 13 12 13 6 4 11 15 17 18 19 17 14 14 14 12 14 12 13 15 16 16 18 20 19 19 16 14 13 15 16 17 18 17 16 17 17 17 20 23 23 21 20 18
20 20 13 13 15 20 21 20 18 15 15 17 18 15 15 10 13 12 14 14 14 15 13 13 14 15 12 13 13 16 18 17 16 16 15 15 14 14 15 14 16 19 21 22
14 12 21 20 17 12 14 21 24 22 21 21 22 20 17 15 13 13 13 13 11 11 12 11 11 12 9 10 10 12 13 17 15 14 14 14 15 15 15 15 15 16 17 22
13 14 14 20 18 19 19 17 17 16 16 14 18 19 21 14 12 14 11 9 9 9 10 8 9 10 8 8 9 10 10 11 11 12 13 14 13 14 15 15 17 17 13 14
14 16 14 14 18 16 15 16 16 16 13 12 12 15 18 15 12 11 10 9 6 8 8 10 12 11 9 8 8 9 10 12 12 11 12 12 12 13 14 14 15 16 15 15
10 12 14 17 15 17 17 15 15 15 15 13 14 16 11 9 8 9 10 10 11 13 13 13 14 10 8 9 9 9 8 9 11 10 11 12 11 13 13 14 14 14 15 16
7 11 13 13 15 15 16 15 15 17 12 15 12 8 7 7 7 8 9 9 12 14 14 12 11 9 9 9 9 10 11 12 12 11 12 13 13 13 13 14 16 15 16 19
8 8 12 13 14 12 11 11 13 14 12 8 5 5 7 8 9 10 9 9 10 11 12 7 9 10 11 12 12 13 13 11 11 11 12 14 14 14 15 15 16 17 18 18
12 11 12 13 14 11 15 15 11 9 10 9 8 8 8 9 9 10 10 11 15 15 15 16 16 16 16 15 14 14 12 11 11 12 13 14 14 15 17 17 18 17 17 17
14 17 15 14 17 19 15 16 14 12 10 10 9 9 9 10 10 10 9 7 19 14 14 16 18 20 18 17 15 14 12 13 13 13 13 14 14 15 16 17 19 18 18 19
16 14 17 18 18 20 21 19 18 19 18 15 14 15 14 16 15 16 18 18 25 25 23 22 22 22 21 18 17 16 16 15 15 14 14 14 15 15 16 16 16 18 18 17
18 19 22 20 19 22 28 25 24 20 20 21 21 20 18 20 19 10 9 22 21 22 22 24 24 23 20 19 21 19 18 18 18 16 15 16 18 17 17 17 16 17 17 15
20 22 24 25 25 22 14 26 23 25 24 26 27 27 24 19 23 24 30 32 31 28 25 24 23 23 21 22 22 21 19 17 18 20 18 17 18 18 19 18 16 15 14 12
23 24 23 21 17 16 21 23 23 23 21 23 26 28 28 28 25 27 24 28 31 28 25 24 23 22 21 21 21 22 20 19 20 18 16 16 17 18 19 16 14 12 11 9
21 21 25 26 23 24 24 21 18 21 17 18 21 20 24 25 24 23 24 25 23 21 22 24 25 22 19 21 21 19 18 17 16 16 16 18 18 18 16 13 10 9 9 7
23 24 21 21 23 22 20 20 19 19 17 18 21 21 21 24 23 23 23 22 20 22 23 23 20 16 15 15 16 16 16 16 16 18 18 18 18 14 10 8 8 7 6 6
Wind_Direction
270 268 255 258 251 220 215 224 230 257 239 265 271 276 275 283 288 289 284 282 290 278 264 248 244 252 263 269 275 286 289 297 320 340 346 346 350 343 341 343 346 347 346 349
278 273 268 265 254 243 240 237 248 259 271 274 277 280 275 272 278 275 282 276 284 268 252 241 235 240 249 257 261 266 274 286 300 302 314 330 334 334 335 338 339 341 341 344
269 296 301 277 258 236 236 235 236 245 250 269 273 274 283 286 282 287 286 285 283 274 258 242 233 226 232 240 248 255 258 259 266 280 289 299 304 304 317 331 342 346 347 344
288 319 250 53 265 238 238 243 235 247 257 260 271 290 294 281 279 283 293 290 274 265 252 240 228 225 233 238 244 247 253 258 259 264 271 278 286 290 294 306 311 316 330 340
269 278 293 279 37 137 198 285 229 237 254 265 281 300 289 284 253 257 282 287 282 275 262 244 225 223 227 237 243 248 253 253 253 254 262 270 275 281 283 286 289 300 315 327
211 275 259 14 132 192 193 296 17 227 250 264 211 276 333 212 226 284 292 291 293 284 256 241 234 223 231 244 247 248 250 249 251 255 258 263 268 273 273 274 277 283 285 294
241 268 277 260 198 126 289 22 343 306 279 211 206 233 344 249 271 275 286 290 286 276 263 259 248 231 238 248 249 253 255 257 257 259 262 266 272 274 276 278 282 282 284 285
201 240 264 157 116 203 53 260 328 297 263 249 259 285 281 278 275 281 281 287 280 269 265 266 253 240 248 253 261 260 259 256 258 259 259 264 263 267 266 267 272 276 277 278
213 226 258 195 243 239 258 282 285 294 282 286 277 273 277 281 284 279 273 282 274 255 268 266 253 238 245 256 260 257 253 253 254 254 254 254 252 258 263 261 260 266 264 270
284 252 252 257 253 261 265 267 280 284 277 279 274 282 280 278 281 276 276 271 265 273 271 269 258 245 246 255 250 244 243 245 247 246 248 248 249 245 245 250 255 260 261 262
252 268 274 275 262 269 271 268 269 272 258 267 269 268 268 279 280 276 278 279 281 274 266 262 270 267 262 258 249 240 242 243 242 240 241 245 243 243 243 247 240 244 246 248
257 277 263 288 315 304 293 285 285 285 288 281 267 261 269 263 265 269 280 288 286 279 276 277 276 275 268 266 255 247 247 246 244 240 241 240 244 250 257 255 258 259 256 251
251 275 286 296 287 286 283 281 285 287 278 279 280 268 264 256 266 273 283 281 279 282 282 281 278 275 275 269 255 244 241 244 245 243 247 247 247 250 261 262 267 257 256 252
265 286 290 285 295 310 295 288 285 278 274 273 273 276 261 254 262 264 266 274 277 284 288 288 287 286 294 291 272 259 255 258 255 254 250 248 247 246 248 251 253 251 255 248
267 274 267 295 295 297 297 288 287 281 284 280 270 264 267 250 243 255 260 261 271 273 274 274 280 286 292 292 283 275 265 260 259 258 256 256 256 255 251 252 256 260 256 251
305 297 300 285 300 308 308 301 291 287 288 284 282 273 259 250 251 253 255 256 251 262 270 279 280 287 287 287 287 283 278 276 273 271 271 266 262 258 257 254 255 258 256 250
308 320 327 314 315 313 310 301 290 285 291 287 281 278 261 240 240 251 255 251 255 267 275 275 278 285 283 290 289 287 285 286 284 275 267 264 260 261 264 264 264 267 265 263
295 289 296 291 296 303 307 310 302 291 281 284 279 263 228 213 237 259 266 275 280 283 281 279 271 269 280 283 285 289 292 293 291 285 283 280 272 262 258 255 257 257 266 273
344 322 321 313 309 301 299 312 326 324 315 313 298 264 260 264 269 276 281 282 280 283 297 275 265 275 280 285 286 291 290 289 287 285 287 289 286 277 267 261 259 259 263 267
328 325 328 326 326 315 310 313 320 326 323 312 299 294 290 286 286 281 287 279 278 279 285 284 281 278 280 275 279 287 287 279 280 287 285 282 277 277 277 271 264 263 263 263
321 323 323 333 326 320 311 310 306 302 305 301 277 273 274 284 280 276 277 280 297 296 290 283 272 270 273 272 281 284 281 278 279 283 284 283 277 275 273 273 269 264 264 265
311 311 310 316 316 309 316 311 305 296 292 284 280 278 280 281 279 274 270 259 293 297 290 285 279 278 275 272 269 270 272 272 278 283 283 283 276 272 271 270 268 271 272 274
302 299 304 302 301 299 304 297 293 285 277 274 270 268 258 262 264 258 274 288 289 290 289 284 284 290 285 266 263 262 264 267 268 272 278 279 278 276 274 270 271 275 275 270
296 297 295 291 292 289 287 292 293 291 284 282 278 276 269 266 271 270 276 281 287 290 289 289 290 292 281 271 260 262 269 269 269 274 279 283 283 284 280 278 276 276 269 262
290 292 288 284 281 280 286 290 292 291 287 283 281 281 284 280 257 274 275 278 285 285 285 291 293 288 278 261 256 267 268 272 276 279 272 277 283 284 284 281 275 267 260 254
289 288 288 289 287 286 284 286 279 285 286 281 283 281 284 288 287 285 285 286 282 281 286 293 293 290 273 259 263 265 270 272 276 274 273 282 284 283 278 266 261 251 247 242
287 283 288 292 285 282 279 277 279 280 280 275 278 285 280 286 290 292 291 288 284 289 295 295 290 274 263 262 267 272 275 279 279 283 283 286 283 271 257 255 249 241 224 211